www.pogodaiklimat.ru

Погода и климат >> Архив погоды >> Ирак >> Najaf


ПОГОДА в Najaf

  • Прогноз погоды в Najaf
  • Монитор погоды в Najaf
  • Климат города

АРХИВ ПОГОДЫ в Najaf

Время (UTC), дата Ветер
(напр.,м/с)
 
Видим.   Явления Облачность Т
(С)
Тd
(С)
f
(%)
Тe
(С)
Тes
(С)
Комфортность P
(гПа)
Po
(гПа)
Тmin
(С)
Tmax
(С)
R
(мм)
R24
(мм)
S
(см)
21 11.12 штиль 0 10 км ясно +13.7 +10.2 79 +13 +13 1021.8 1022.0
00 12.12 штиль 0 10 км ясно +13.0 +9.9 81 +13 +13 1021.3 1021.0
03 12.12 штиль 0 10 км ясно +12.3 +9.3 82 +12 +12 1021.0 1021.0
06 12.12 штиль 0 10 км 8/8 840 м
[Cu Sc]
+14.0 +10.1 77 +14 +14 1022.6 1023.0 +11.8
09 12.12 штиль 0 10 км 4/4 900 м
[Cu hum]
+20.4 +12.8 62 +22 +28 комфорт 1021.0 1021.0
12 12.12 штиль 0 10 км 1/1 900 м
[Cu hum]
+22.6 +14.8 61 +26 +29 жарко 1018.8 1019.0
15 12.12 штиль 0 10 км 3/3 900 м
[Cu hum]
+20.0 +13.7 67 +22 +22 комфорт 1017.0 1017.0
18 12.12 штиль 0 10 км ясно +18.5 +13.2 71 +19 +19 1017.0 1017.0 +23.0
21 12.12 ЮВ 3 8000 м дымка ясно +15.7 +12.6 82 +15 +15 1017.5 1018.0
00 13.12 штиль 0 8000 м дымка ясно +15.0 +11.6 80 +15 +15 1017.5 1018.0
03 13.12 штиль 0 8000 м дымка ясно +13.4 +11.1 86 +13 +13 1017.9 1018.0
06 13.12 штиль 0 10 км ясно +14.2 +11.4 83 +14 +17 1020.8 1021.0 +13.0
09 13.12 штиль 0 10 км ясно +19.6 +12.2 62 +21 +31 комфорт 1021.2 1021.0
12 13.12 штиль 0 10 км ясно +22.0 +11.2 50 +24 +28 комфорт 1020.8 1021.0
15 13.12 штиль 0 10 км ясно +18.7 +11.4 63 +19 +19 1021.0 1021.0
18 13.12 штиль 0 10 км ясно +16.0 +10.3 69 +16 +16 1023.4 1023.0 +22.5
21 13.12 штиль 0 10 км ясно +14.0 +8.8 71 +14 +14 1024.0 1024.0
00 14.12 штиль 0 10 км ясно +12.5 +10.1 85 +12 +12 1024.8 1025.0
03 14.12 штиль 0 10 км ясно +12.0 +10.2 89 +11 +11 1025.4 1025.0
06 14.12 штиль 0 10 км ясно +12.5 +9.9 84 +12 +15 1026.6 1027.0 +11.5
09 14.12 штиль 0 10 км ясно +18.5 +11.3 63 +19 +29 1026.2 1026.0
12 14.12 штиль 0 10 км ясно +19.5 +8.3 48 +20 +24 1025.4 1025.0
15 14.12 штиль 0 10 км ясно +16.5 +9.8 65 +16 +16 1025.9 1026.0
18 14.12 штиль 0 10 км ясно +13.6 +8.4 71 +13 +13 1026.6 1027.0 +19.8
21 14.12 штиль 0 10 км ясно +12.2 +7.4 72 +12 +12 1026.6 1027.0
00 15.12 штиль 0 10 км ясно +10.5 +7.3 81 +10 +10 1026.4 1026.0
03 15.12 штиль 0 10 км ясно +10.0 +6.8 80 +9 +9 1026.8 1027.0
06 15.12 штиль 0 10 км ясно +12.2 +7.6 73 +12 +15 1027.6 1028.0 +9.5
12 15.12 С 4 10 км ясно +18.5 +6.7 46 +19 +20 1025.8 1026.0
15 15.12 штиль 0 10 км ясно +15.3 +8.6 64 +15 +15 1025.6 1026.0
18 15.12 штиль 0 10 км ясно +12.8 +8.1 73 +12 +12 1026.2 1026.0 +19.1
21 15.12 штиль 0 10 км ясно +10.8 +8.7 87 +10 +10 1026.2 1026.0
00 16.12 штиль 0 10 км ясно +8.8 +7.3 90 +8 +8 1026.2 1026.0
06 16.12 штиль 0 10 км 3/0
[Ci fib]
+11.8 +8.5 80 +11 +14 1026.7 1027.0 +7.6
09 16.12 штиль 0 10 км 5/0
[Ci sp]
+16.0 +9.2 64 +16 +25 1026.3 1026.0
12 16.12 штиль 0 10 км 9/0
[Cs]
+17.7 +9.5 59 +18 +21 1025.0 1025.0
15 16.12 штиль 0 10 км 8/4
[Cb calv Ci sp]
+15.2 +10.0 71 +15 +15 1024.6 1025.0
18 16.12 штиль 0 10 км 9/5
[Cu hum Ci sp]
+14.7 +9.9 73 +14 +14 1024.8 1025.0 +18.0
21 16.12 штиль 0 10 км 10/8 840 м
[Cu Sc Ci sp]
+13.2 +10.9 86 +13 +13 1024.2 1024.0
00 17.12 штиль 0 10 км 10/9 750 м
[Cu Sc Ci sp]
+13.8 +9.9 77 +13 +13 1022.3 1022.0
06 17.12 ЮВ 2 8000 м сильный дождь 10/10 750 м
[Cu Sc]
+14.0 +8.4 69 +14 +14 1019.1 1019.0 +12.5 0.0
09 17.12 Ю 6 8000 м в посл. час снег {дождь} 10/10 750 м
[Cu Sc]
+15.6 +8.9 64 +14 +14 1016.6 1017.0
12 17.12 ЮВ 4 8000 м дождь 10/10 750 м
[Cu Sc]
+17.5 +12.6 73 +17 +17 1014.4 1014.0
15 17.12 Ю 5 8000 м 8/8 750 м
[Cu Sc]
+18.4 +12.7 69 +18 +18 1014.1 1014.0
18 17.12 штиль 0 8000 м 5/5 750 м
[Cu Sc]
+17.1 +12.8 76 +17 +17 1016.0 1016.0 +18.7 1
21 17.12 штиль 0 4000 м дымка 5/5 750 м
[Cu Sc]
+13.4 +11.7 89 +13 +13 1017.8 1018.0
00 18.12 штиль 0 4000 м дымка 10/10 750 м
[Cu Sc]
+12.9 +11.2 89 +12 +12 1019.2 1019.0
03 18.12 штиль 0 4000 м дымка 8/8 750 м
[Cu Sc]
+12.5 +10.7 89 +12 +12 1021.2 1021.0
06 18.12 штиль 0 10 км ясно +12.7 +10.8 88 +12 +15 1023.4 1023.0 +11.5
12 18.12 штиль 0 10 км 5/5 840 м
[Cu med, cong]
+17.4 +10.7 65 +17 +19 1023.0 1023.0
15 18.12 СВ 2 10 км 3/3 840 м
[Cu med, cong]
+15.0 +10.4 74 +15 +15 1023.8 1024.0

 

Местоположение метеостанции Najaf (Ирак): широта 31.98 долгота 44.32 высота над уровнем моря 32 м.

В архиве по умолчанию представлена погода в Najaf за последнюю неделю. Архивные данные за месяц целиком и за предыдущие месяцы, начиная с января 2011 года, Вы можете получить, выбрав интересующий диапазон дат из раскрывающегося списка и нажав кнопку "Ввод!".


*Определитесь, кто Вы:
робот инопланетянин человек

Внимание! Время в таблицах - всемирное. Для получения местного времени необходимо прибавить поправку, которая в Najaf равна 3 ч.

Смотрите также архив погоды в соседних городах и на ближайших метеорологических станциях:

Погода в Hella (Ирак) (54 км)
Погода в Diwaniya (Ирак) (62 км)
Погода в Karbalaa (Ирак) (77 км)
Погода в Samawah (Ирак) (118 км)
Погода в Azizyah (Ирак) (126 км)
Погода в Baghdad (Ирак) (139 км)
Погода в Ubaydah Bin Al Jarrah (Ирак) (146 км)
Погода в Kut-Al-Hai (Ирак) (164 км)
Погода в Rifai (Ирак) (171 км)
Погода в Ayn Al-Tamar (Ирак) (179 км)

Пояснения к столбцам:

Ветер - указаны скорость ветра в м/с - средняя за 10 мин, порывы в срок и между сроками (в фигурных скобках) и направление, откуда дует ветер: С - северный, СВ - северо-восточный, В - восточный, ЮВ - юго-восточный, Ю - южный, ЮЗ - юго-западный, З - западный, СЗ - северо-западный.
Видимость - горизонтальная дальность видимости в метрах или километрах. При видимости от 1 до 10 км при отсутствии осадков обычно наблюдается дымка, при ухудшении видимости до 1 км и менее - туман. В сухую погоду видимость может ухудшаться дымом, пылью или мглою.
Явления - указаны атмосферные явления, наблюдавшиеся в срок или в последний час перед сроком; фигурными скобками обозначены явления, наблюдавшиеся между сроками (за 1-3 часа до срока); квадратными скобками обозначены град или гололедные отложения с указанием их диаметра в мм.
Облачность - указаны через наклонную черту общая и нижняя облачность в баллах и высота нижней границы облаков в метрах; квадратными скобками обозначены формы облаков: Ci - перистые, Cs - перисто-слоистые, Cc - перисто-кучевые, Ac - высококучевые, As - высокослоистые, Sc - слоисто-кучевые, Ns - слоисто-дождевые, Cu - кучевые, Cb - кучево-дождевые. Подробнее классификацию облаков см. в Атласе облаков (PDF).
T - Температура воздуха - температура, измеренная на высоте 2 м над землей.
Td - Температура точки росы - температура, при понижении до которой содержащийся в воздухе водяной пар достигнет насыщения.
f - Относительная влажность воздуха - влажноcть воздуха, измеренная на высоте 2 м над землей.
Te - Эффективная температура - температура, которую ощущает одетый по сезону человек в тени. Характеристика душности погоды. При расчете учитывается влияние влажности воздуха и скорости ветра на теплоощущения человека.
Tes - Эффективная температура на солнце - температура, которую ощущает человек, с поправкой на солнечный нагрев. Характеристика знойности погоды. Зависит от высоты солнца над горизонтом, облачности и скорости ветра. Ночью, в пасмурную погоду, а также при ветре 12 м/с и более поправка равна нулю.
P - Атмосферное давление - приведенное к уровню моря атмосферное давление.
Po - Атмосферное давление - измеренное на уровне метеостанции атмосферное давление.
Tmin - Минимальная температура - минимум температуры воздуха на высоте 2 м над землей.
Tmax - Максимальная температура - максимум температуры воздуха на высоте 2 м над землей.
R - Количество осадков - Количество выпавших осадков за период времени, мм. При наведении курсора мыши на число - период времени, за который выпало указанное количество осадков.
R24 - Количество осадков - Количество выпавших осадков за 24 часа, мм.
S - Снежный покров - Высота снежного покрова, см. При наведении курсора мыши на число - состояние снежного покрова и степень покрытия местности в баллах.